Tenerife > ESTACION METEOROLÓGICA Aeropuerto Sur

DATOS ACTUALES Online

Ultima actulizacion 19 minutos

18.2 ºC

Temperatura

58

Humedad (%)

1021.3

Presión (mb)

0

Precipitación (mm)

5.2 NO

Viento (Km/h)

DATOS DIARIOS

Temperatura últimas 24 horas (ºC)

Humedad últimas 24 horas (%)

Presión atmosférica últimas 24 horas (mb)

Precipitaciones últimas 23 horas (mm)

Viento últimas 24 horas (Km/h)

Hora Temperatura (°C) ºC Precipitación (mm) mm Presión (mb) mb Humedad (%) % Viento (Km/h) km/h
19 - 10:00 16.8 0 1022 79 5.2 SO
19 - 11:00 17.3 0 1023 79 5.9 SO
19 - 12:00 18.3 0 1023 76 5.5 SO
19 - 13:00 18.7 0 1023 74 5.9 SO
19 - 14:00 19.2 0 1022 73 5.5 SO
19 - 15:00 19.7 0 1021 71 5.8 SO
19 - 16:00 19.4 0 1021 72 5 SO
19 - 17:00 18.8 0 1020 76 4.4 SO
19 - 18:00 18.7 0 1020 74 4.2 SO
19 - 19:00 18.2 0 1021 76 3.4 SO
19 - 20:00 17.5 0 1021 79 3.6 O
19 - 21:00 17.2 0 1021 80 3.4 O
19 - 22:00 16.7 0 1022 81 4.1 NO
19 - 23:00 17.1 0 1022 68 4.6 N
20 - 00:00 17.1 0 1022 49 4.1 NO
20 - 01:00 16.8 0 1022 50 4.1 NO
20 - 02:00 18.2 0 1022 50 4 NO
20 - 03:00 18.2 0 1021 53 4.7 NO
20 - 04:00 18.1 0 1021 51 4.9 NO
20 - 05:00 17.4 0 1021 55 4.9 NO
20 - 06:00 17.2 0 1021 57 4.5 NO
20 - 07:00 17.7 0 1020 56 5.1 NO
20 - 08:00 17 0 1021 58 5.8 NO
20 - 09:00 17.4 0 1021 59 5.6 NO
20 - 10:00 18.2 0 1021 58 5.2 NO
Apalmet utiliza cookies propias y de terceros para mejorar la usabilidad y la experiencia web. Política de cookies.